Time,TemperatureF,DewpointF,PressureIn,WindDirection,WindDirectionDegrees,WindSpeedMPH,WindSpeedGustMPH,Humidity,HourlyPrecipIn,Conditions,Clouds,dailyrainin,SolarRadiationWatts/m^2,SoftwareType,DateUTC
2013-05-22 00:02:00,71.9,69.8,30.02,West,277,2.0,2.0,93,0.00,,,0.87,0,Wunderground v.1.15,2013-05-22 04:02:00,
2013-05-22 00:03:00,71.9,69.8,30.03,WNW,288,0.0,2.0,93,0.00,,,0.87,0,Wunderground v.1.15,2013-05-22 04:03:00,
2013-05-22 00:04:00,71.9,69.8,30.03,WNW,289,0.0,2.0,93,0.00,,,0.87,0,Wunderground v.1.15,2013-05-22 04:04:00,
2013-05-22 00:10:00,71.8,69.7,30.03,NW,311,1.0,1.0,93,0.00,,,0.87,0,Wunderground v.1.15,2013-05-22 04:10:00,
2013-05-22 00:16:00,71.8,70.0,30.02,West,272,0.0,2.0,94,0.00,,,0.87,0,Wunderground v.1.15,2013-05-22 04:16:00,
2013-05-22 00:22:00,71.8,70.0,30.03,WNW,286,3.0,3.0,94,0.00,,,0.87,0,Wunderground v.1.15,2013-05-22 04:22:00,
2013-05-22 00:28:00,71.7,69.9,30.02,WNW,300,0.0,3.0,94,0.00,,,0.87,0,Wunderground v.1.15,2013-05-22 04:28:00,
2013-05-22 00:33:00,71.6,69.8,30.02,WNW,284,1.0,1.0,94,0.00,,,0.87,0,Wunderground v.1.15,2013-05-22 04:33:00,
2013-05-22 00:38:00,71.6,69.8,30.02,WNW,284,0.0,1.0,94,0.00,,,0.87,0,Wunderground v.1.15,2013-05-22 04:38:00,
2013-05-22 00:41:00,71.5,69.7,30.02,WNW,284,0.0,0.0,94,0.00,,,0.87,0,Wunderground v.1.15,2013-05-22 04:41:00,
2013-05-22 00:47:00,71.4,69.6,30.02,WNW,284,0.0,0.0,94,0.00,,,0.87,0,Wunderground v.1.15,2013-05-22 04:47:00,
2013-05-22 00:53:00,71.3,69.5,30.02,WNW,284,0.0,0.0,94,0.00,,,0.87,0,Wunderground v.1.15,2013-05-22 04:53:00,
2013-05-22 00:59:00,71.1,69.3,30.02,WNW,284,0.0,0.0,94,0.00,,,0.87,0,Wunderground v.1.15,2013-05-22 04:59:00,
2013-05-22 01:04:00,71.2,69.7,30.02,WNW,284,0.0,0.0,95,0.00,,,0.87,0,Wunderground v.1.15,2013-05-22 05:04:00,
2013-05-22 01:10:00,71.0,69.5,30.03,WNW,284,0.0,0.0,95,0.00,,,0.87,0,Wunderground v.1.15,2013-05-22 05:10:00,
2013-05-22 01:16:00,71.0,69.5,30.03,WNW,284,0.0,0.0,95,0.00,,,0.87,0,Wunderground v.1.15,2013-05-22 05:16:00,
2013-05-22 01:22:00,70.9,69.4,30.03,WNW,284,0.0,0.0,95,0.00,,,0.87,0,Wunderground v.1.15,2013-05-22 05:22:00,
2013-05-22 01:28:00,70.8,69.3,30.03,WNW,284,0.0,0.0,95,0.00,,,0.87,0,Wunderground v.1.15,2013-05-22 05:28:00,
2013-05-22 01:34:00,70.8,69.3,30.03,WNW,284,0.0,0.0,95,0.00,,,0.00,0,Wunderground v.1.15,2013-05-22 05:34:00,
2013-05-22 01:39:00,70.6,69.1,30.03,WNW,284,0.0,0.0,95,0.00,,,0.00,0,Wunderground v.1.15,2013-05-22 05:39:00,
2013-05-22 01:44:00,70.5,69.0,30.03,WNW,284,0.0,0.0,95,0.00,,,0.00,0,Wunderground v.1.15,2013-05-22 05:44:00,
2013-05-22 01:49:00,70.3,69.1,30.03,WNW,284,0.0,0.0,96,0.00,,,0.00,0,Wunderground v.1.15,2013-05-22 05:49:00,
2013-05-22 01:54:00,70.2,68.7,30.03,WNW,284,0.0,0.0,95,0.00,,,0.00,0,Wunderground v.1.15,2013-05-22 05:54:00,
2013-05-22 01:59:00,70.0,68.5,30.03,WNW,284,0.0,0.0,95,0.00,,,0.00,0,Wunderground v.1.15,2013-05-22 05:59:00,
2013-05-22 02:04:00,69.8,68.3,30.03,WNW,284,0.0,0.0,95,0.00,,,0.00,0,Wunderground v.1.15,2013-05-22 06:04:00,
2013-05-22 02:09:00,69.7,68.2,30.03,WNW,284,0.0,0.0,95,0.00,,,0.00,0,Wunderground v.1.15,2013-05-22 06:09:00,
2013-05-22 02:14:00,69.6,68.4,30.03,WNW,284,0.0,0.0,96,0.00,,,0.00,0,Wunderground v.1.15,2013-05-22 06:14:00,
2013-05-22 02:19:00,69.4,67.9,30.03,WNW,284,0.0,0.0,95,0.00,,,0.00,0,Wunderground v.1.15,2013-05-22 06:19:00,
2013-05-22 02:24:00,69.3,68.1,30.02,WNW,284,0.0,0.0,96,0.00,,,0.00,0,Wunderground v.1.15,2013-05-22 06:24:00,
2013-05-22 02:29:00,69.3,68.1,30.02,WNW,284,0.0,0.0,96,0.00,,,0.00,0,Wunderground v.1.15,2013-05-22 06:29:00,
2013-05-22 02:35:00,69.2,68.0,30.02,WNW,284,0.0,0.0,96,0.00,,,0.00,0,Wunderground v.1.15,2013-05-22 06:35:00,
2013-05-22 02:40:00,69.0,67.8,30.02,WNW,284,0.0,0.0,96,0.00,,,0.00,0,Wunderground v.1.15,2013-05-22 06:40:00,
2013-05-22 02:45:00,68.9,67.7,30.02,WNW,284,0.0,0.0,96,0.00,,,0.00,0,Wunderground v.1.15,2013-05-22 06:45:00,
2013-05-22 02:50:00,68.8,67.6,30.02,WNW,284,0.0,0.0,96,0.00,,,0.00,0,Wunderground v.1.15,2013-05-22 06:50:00,
2013-05-22 02:55:00,68.7,67.5,30.02,WNW,284,0.0,0.0,96,0.00,,,0.00,0,Wunderground v.1.15,2013-05-22 06:55:00,
2013-05-22 03:00:00,68.6,67.4,30.02,WNW,284,0.0,0.0,96,0.00,,,0.00,0,Wunderground v.1.15,2013-05-22 07:00:00,
2013-05-22 03:05:00,68.6,67.4,30.02,WNW,284,0.0,0.0,96,0.00,,,0.00,0,Wunderground v.1.15,2013-05-22 07:05:00,
2013-05-22 03:10:00,68.6,67.7,30.02,WNW,284,0.0,0.0,97,0.00,,,0.00,0,Wunderground v.1.15,2013-05-22 07:10:00,
2013-05-22 03:15:00,68.6,67.7,30.02,WNW,284,0.0,0.0,97,0.00,,,0.00,0,Wunderground v.1.15,2013-05-22 07:15:00,
2013-05-22 03:20:00,68.7,67.8,30.02,WNW,284,0.0,0.0,97,0.00,,,0.00,0,Wunderground v.1.15,2013-05-22 07:20:00,
2013-05-22 03:25:00,68.6,67.7,30.02,WNW,284,0.0,0.0,97,0.00,,,0.00,0,Wunderground v.1.15,2013-05-22 07:25:00,
2013-05-22 03:30:00,68.5,67.6,30.02,WNW,284,0.0,0.0,97,0.00,,,0.00,0,Wunderground v.1.15,2013-05-22 07:30:00,
2013-05-22 03:35:00,68.3,67.1,30.01,WNW,284,0.0,0.0,96,0.00,,,0.00,0,Wunderground v.1.15,2013-05-22 07:35:00,
2013-05-22 03:40:00,68.1,66.9,30.01,WNW,284,0.0,0.0,96,0.00,,,0.00,0,Wunderground v.1.15,2013-05-22 07:40:00,
2013-05-22 03:45:00,68.0,66.8,30.01,WNW,284,0.0,0.0,96,0.00,,,0.00,0,Wunderground v.1.15,2013-05-22 07:45:00,
2013-05-22 03:50:00,68.0,67.1,30.01,WNW,284,0.0,0.0,97,0.00,,,0.00,0,Wunderground v.1.15,2013-05-22 07:50:00,
2013-05-22 03:56:00,67.8,66.9,30.01,WNW,284,0.0,0.0,97,0.00,,,0.00,0,Wunderground v.1.15,2013-05-22 07:56:00,
2013-05-22 04:03:00,67.9,67.0,30.01,WNW,284,0.0,0.0,97,0.00,,,0.00,0,Wunderground v.1.15,2013-05-22 08:03:00,
2013-05-22 04:08:00,67.7,66.8,30.01,WNW,284,0.0,0.0,97,0.00,,,0.00,0,Wunderground v.1.15,2013-05-22 08:08:00,
2013-05-22 04:13:00,67.7,66.8,30.01,WNW,284,0.0,0.0,97,0.00,,,0.00,0,Wunderground v.1.15,2013-05-22 08:13:00,
2013-05-22 04:18:00,67.6,66.7,30.01,WNW,284,0.0,0.0,97,0.00,,,0.00,0,Wunderground v.1.15,2013-05-22 08:18:00,
2013-05-22 04:23:00,67.6,66.7,30.01,WNW,284,0.0,0.0,97,0.00,,,0.00,0,Wunderground v.1.15,2013-05-22 08:23:00,
2013-05-22 04:28:00,67.5,66.6,30.01,WNW,284,0.0,0.0,97,0.00,,,0.00,0,Wunderground v.1.15,2013-05-22 08:28:00,
2013-05-22 04:33:00,67.6,66.7,30.01,WNW,284,0.0,0.0,97,0.00,,,0.00,0,Wunderground v.1.15,2013-05-22 08:33:00,
2013-05-22 04:38:00,67.5,66.6,30.01,WNW,284,0.0,0.0,97,0.00,,,0.00,0,Wunderground v.1.15,2013-05-22 08:38:00,
2013-05-22 04:43:00,67.5,66.6,30.00,WNW,284,0.0,0.0,97,0.00,,,0.00,0,Wunderground v.1.15,2013-05-22 08:43:00,
2013-05-22 04:48:00,67.4,66.5,30.01,WNW,284,0.0,0.0,97,0.00,,,0.00,0,Wunderground v.1.15,2013-05-22 08:48:00,
2013-05-22 04:53:00,67.3,66.4,30.00,WNW,284,0.0,0.0,97,0.00,,,0.00,0,Wunderground v.1.15,2013-05-22 08:53:00,
2013-05-22 04:58:00,67.2,66.3,30.00,WNW,284,0.0,0.0,97,0.00,,,0.00,0,Wunderground v.1.15,2013-05-22 08:58:00,
2013-05-22 05:03:00,67.2,66.3,30.00,WNW,284,0.0,0.0,97,0.00,,,0.00,0,Wunderground v.1.15,2013-05-22 09:03:00,
2013-05-22 05:08:00,67.2,66.3,30.00,WNW,284,0.0,0.0,97,0.00,,,0.00,0,Wunderground v.1.15,2013-05-22 09:08:00,
2013-05-22 05:13:00,67.2,66.3,30.00,WNW,284,0.0,0.0,97,0.00,,,0.00,0,Wunderground v.1.15,2013-05-22 09:13:00,
2013-05-22 05:18:00,67.1,66.2,30.00,WNW,284,0.0,0.0,97,0.00,,,0.00,0,Wunderground v.1.15,2013-05-22 09:18:00,
2013-05-22 05:23:00,67.1,66.2,30.00,WNW,284,0.0,0.0,97,0.00,,,0.00,0,Wunderground v.1.15,2013-05-22 09:23:00,
2013-05-22 05:28:00,67.0,66.1,30.00,WNW,284,0.0,0.0,97,0.00,,,0.00,0,Wunderground v.1.15,2013-05-22 09:28:00,
2013-05-22 05:33:00,66.9,66.0,30.00,WNW,284,0.0,0.0,97,0.00,,,0.00,0,Wunderground v.1.15,2013-05-22 09:33:00,
2013-05-22 05:38:00,67.0,66.1,30.00,WNW,284,0.0,0.0,97,0.00,,,0.00,0,Wunderground v.1.15,2013-05-22 09:38:00,
2013-05-22 05:43:00,67.1,66.2,30.00,WNW,284,0.0,0.0,97,0.00,,,0.00,0,Wunderground v.1.15,2013-05-22 09:43:00,
2013-05-22 05:48:00,67.1,66.2,30.00,WNW,284,0.0,0.0,97,0.00,,,0.00,0,Wunderground v.1.15,2013-05-22 09:48:00,
2013-05-22 05:53:00,67.1,66.2,30.01,WNW,284,0.0,0.0,97,0.00,,,0.00,0,Wunderground v.1.15,2013-05-22 09:53:00,
2013-05-22 05:58:00,67.0,66.1,30.01,WNW,284,0.0,0.0,97,0.00,,,0.00,0,Wunderground v.1.15,2013-05-22 09:58:00,
2013-05-22 06:03:00,66.9,66.0,30.02,WNW,284,0.0,0.0,97,0.00,,,0.00,0,Wunderground v.1.15,2013-05-22 10:03:00,
2013-05-22 06:08:00,66.8,65.9,30.02,WNW,284,0.0,0.0,97,0.00,,,0.00,0,Wunderground v.1.15,2013-05-22 10:08:00,
2013-05-22 06:13:00,66.8,66.2,30.01,WNW,284,0.0,0.0,98,0.00,,,0.00,0,Wunderground v.1.15,2013-05-22 10:13:00,
2013-05-22 06:18:00,66.8,66.2,30.02,WNW,284,0.0,0.0,98,0.00,,,0.00,0,Wunderground v.1.15,2013-05-22 10:18:00,
2013-05-22 06:23:00,66.8,66.2,30.01,WNW,284,0.0,0.0,98,0.00,,,0.00,5,Wunderground v.1.15,2013-05-22 10:23:00,
2013-05-22 06:28:00,66.8,66.2,30.02,WNW,284,0.0,0.0,98,0.00,,,0.00,9,Wunderground v.1.15,2013-05-22 10:28:00,
2013-05-22 06:33:00,66.8,66.2,30.02,WNW,284,0.0,0.0,98,0.00,,,0.00,12,Wunderground v.1.15,2013-05-22 10:33:00,
2013-05-22 06:38:00,66.8,66.2,30.02,WNW,284,0.0,0.0,98,0.00,,,0.00,14,Wunderground v.1.15,2013-05-22 10:38:00,
2013-05-22 06:43:00,67.0,66.4,30.02,WNW,284,0.0,0.0,98,0.00,,,0.00,18,Wunderground v.1.15,2013-05-22 10:43:00,
2013-05-22 06:48:00,67.1,66.5,30.02,WNW,284,0.0,0.0,98,0.00,,,0.00,19,Wunderground v.1.15,2013-05-22 10:48:00,
2013-05-22 06:53:00,67.2,66.6,30.02,WNW,284,0.0,0.0,98,0.00,,,0.00,23,Wunderground v.1.15,2013-05-22 10:53:00,
2013-05-22 06:59:00,67.6,67.0,30.02,WNW,284,0.0,0.0,98,0.00,,,0.00,26,Wunderground v.1.15,2013-05-22 10:59:00,
2013-05-22 07:04:00,68.4,67.8,30.02,WNW,284,0.0,1.0,98,0.00,,,0.00,26,Wunderground v.1.15,2013-05-22 11:04:00,
2013-05-22 07:09:00,68.8,68.2,30.02,WNW,284,1.0,1.0,98,0.00,,,0.00,30,Wunderground v.1.15,2013-05-22 11:09:00,
2013-05-22 07:14:00,69.1,68.5,30.02,WNW,284,0.0,0.0,98,0.00,,,0.00,25,Wunderground v.1.15,2013-05-22 11:14:00,
2013-05-22 07:19:00,69.3,69.0,30.02,WNW,284,0.0,0.0,99,0.00,,,0.00,28,Wunderground v.1.15,2013-05-22 11:19:00,
2013-05-22 07:24:00,69.5,68.9,30.02,WNW,284,0.0,0.0,98,0.00,,,0.00,37,Wunderground v.1.15,2013-05-22 11:24:00,
2013-05-22 07:29:00,69.7,69.1,30.02,WNW,284,0.0,1.0,98,0.00,,,0.00,39,Wunderground v.1.15,2013-05-22 11:29:00,
2013-05-22 07:34:00,70.0,69.7,30.03,WNW,284,0.0,1.0,99,0.00,,,0.00,40,Wunderground v.1.15,2013-05-22 11:34:00,
2013-05-22 07:39:00,70.4,69.8,30.03,WNW,284,0.0,1.0,98,0.00,,,0.00,42,Wunderground v.1.15,2013-05-22 11:39:00,
2013-05-22 07:44:00,70.8,70.5,30.03,WNW,284,0.0,0.0,99,0.00,,,0.00,44,Wunderground v.1.15,2013-05-22 11:44:00,
2013-05-22 07:50:00,71.1,70.5,30.03,WNW,284,0.0,0.0,98,0.00,,,0.00,69,Wunderground v.1.15,2013-05-22 11:50:00,
2013-05-22 07:55:00,71.3,71.0,30.03,WNW,284,0.0,0.0,99,0.00,,,0.00,113,Wunderground v.1.15,2013-05-22 11:55:00,
2013-05-22 08:00:00,71.5,71.2,30.03,WNW,284,0.0,0.0,99,0.00,,,0.00,118,Wunderground v.1.15,2013-05-22 12:00:00,
2013-05-22 08:05:00,71.8,71.5,30.03,WNW,284,0.0,0.0,99,0.00,,,0.00,107,Wunderground v.1.15,2013-05-22 12:05:00,
2013-05-22 08:10:00,72.0,71.7,30.03,WNW,284,0.0,0.0,99,0.00,,,0.00,60,Wunderground v.1.15,2013-05-22 12:10:00,
2013-05-22 08:15:00,72.1,71.5,30.03,WNW,284,0.0,1.0,98,0.00,,,0.00,56,Wunderground v.1.15,2013-05-22 12:15:00,
2013-05-22 08:20:00,72.2,71.6,30.03,SSE,148,1.0,1.0,98,0.00,,,0.00,125,Wunderground v.1.15,2013-05-22 12:20:00,
2013-05-22 08:25:00,72.3,71.7,30.03,SSE,153,0.0,2.0,98,0.00,,,0.00,144,Wunderground v.1.15,2013-05-22 12:25:00,
2013-05-22 08:30:00,72.2,71.6,30.03,WNW,293,1.0,1.0,98,0.00,,,0.00,323,Wunderground v.1.15,2013-05-22 12:30:00,
2013-05-22 08:35:00,72.3,71.7,30.03,SSW,209,2.0,2.0,98,0.00,,,0.00,98,Wunderground v.1.15,2013-05-22 12:35:00,
2013-05-22 08:40:00,72.6,72.0,30.03,SSW,202,0.0,0.0,98,0.00,,,0.00,153,Wunderground v.1.15,2013-05-22 12:40:00,
2013-05-22 08:45:00,72.6,71.7,30.03,SSW,202,0.0,1.0,97,0.00,,,0.00,381,Wunderground v.1.15,2013-05-22 12:45:00,
2013-05-22 08:51:00,72.6,71.4,30.03,SSW,209,0.0,0.0,96,0.00,,,0.00,399,Wunderground v.1.15,2013-05-22 12:51:00,
2013-05-22 08:56:00,72.9,71.4,30.03,SSE,156,1.0,2.0,95,0.00,,,0.00,422,Wunderground v.1.15,2013-05-22 12:56:00,
2013-05-22 09:03:00,73.6,71.4,30.03,South,176,0.0,4.0,93,0.00,,,0.00,459,Wunderground v.1.15,2013-05-22 13:03:00,
2013-05-22 09:08:00,74.2,71.1,30.03,SSE,160,0.0,4.0,90,0.00,,,0.00,482,Wunderground v.1.15,2013-05-22 13:08:00,
2013-05-22 09:13:00,74.8,71.3,30.03,WSW,239,1.0,2.0,89,0.00,,,0.00,513,Wunderground v.1.15,2013-05-22 13:13:00,
2013-05-22 09:18:00,75.3,70.5,30.04,WNW,294,3.0,3.0,85,0.00,,,0.00,538,Wunderground v.1.15,2013-05-22 13:18:00,
2013-05-22 09:23:00,75.7,69.8,30.04,NW,311,0.0,3.0,82,0.00,,,0.00,591,Wunderground v.1.15,2013-05-22 13:23:00,
2013-05-22 09:28:00,76.3,70.4,30.04,NNW,329,0.0,3.0,82,0.00,,,0.00,594,Wunderground v.1.15,2013-05-22 13:28:00,
2013-05-22 09:33:00,77.1,70.1,30.04,NW,322,1.0,4.0,79,0.00,,,0.00,109,Wunderground v.1.15,2013-05-22 13:33:00,
2013-05-22 09:38:00,77.1,70.1,30.04,WNW,286,1.0,4.0,79,0.00,,,0.00,123,Wunderground v.1.15,2013-05-22 13:38:00,
2013-05-22 09:43:00,77.5,70.8,30.04,WNW,284,0.0,3.0,80,0.00,,,0.00,619,Wunderground v.1.15,2013-05-22 13:43:00,
2013-05-22 09:48:00,78.0,70.6,30.04,NW,313,1.0,6.0,78,0.00,,,0.00,629,Wunderground v.1.15,2013-05-22 13:48:00,
2013-05-22 09:53:00,78.3,70.9,30.04,WNW,290,2.0,5.0,78,0.00,,,0.00,654,Wunderground v.1.15,2013-05-22 13:53:00,
2013-05-22 09:58:00,78.7,70.9,30.04,NNW,338,1.0,5.0,77,0.00,,,0.00,661,Wunderground v.1.15,2013-05-22 13:58:00,
2013-05-22 10:04:00,78.7,70.9,30.04,WNW,286,3.0,5.0,77,0.00,,,0.00,671,Wunderground v.1.15,2013-05-22 14:04:00,
2013-05-22 10:09:00,79.0,70.8,30.04,NNW,338,2.0,5.0,76,0.00,,,0.00,684,Wunderground v.1.15,2013-05-22 14:09:00,
2013-05-22 10:15:00,79.6,70.6,30.04,West,276,1.0,4.0,74,0.00,,,0.00,712,Wunderground v.1.15,2013-05-22 14:15:00,
2013-05-22 10:20:00,79.3,69.9,30.04,WNW,283,0.0,2.0,73,0.00,,,0.00,721,Wunderground v.1.15,2013-05-22 14:20:00,
2013-05-22 10:25:00,79.6,70.6,30.04,WNW,294,1.0,3.0,74,0.00,,,0.00,737,Wunderground v.1.15,2013-05-22 14:25:00,
2013-05-22 10:30:00,79.9,70.1,30.04,West,273,3.0,3.0,72,0.00,,,0.00,747,Wunderground v.1.15,2013-05-22 14:30:00,
2013-05-22 10:35:00,79.8,70.8,30.04,NNW,338,0.0,7.0,74,0.00,,,0.00,763,Wunderground v.1.15,2013-05-22 14:35:00,
2013-05-22 10:40:00,79.8,70.4,30.04,NW,323,7.0,7.0,73,0.00,,,0.00,779,Wunderground v.1.15,2013-05-22 14:40:00,
2013-05-22 10:45:00,79.6,70.6,30.04,North,360,1.0,7.0,74,0.00,,,0.00,796,Wunderground v.1.15,2013-05-22 14:45:00,
2013-05-22 10:50:00,80.0,71.0,30.04,West,277,1.0,4.0,74,0.00,,,0.00,805,Wunderground v.1.15,2013-05-22 14:50:00,
2013-05-22 10:55:00,79.8,70.8,30.04,WNW,298,1.0,7.0,74,0.00,,,0.00,823,Wunderground v.1.15,2013-05-22 14:55:00,
2013-05-22 11:00:00,80.4,71.3,30.04,West,278,4.0,4.0,74,0.00,,,0.00,838,Wunderground v.1.15,2013-05-22 15:00:00,
2013-05-22 11:05:00,80.7,71.2,30.04,North,350,3.0,6.0,73,0.00,,,0.00,882,Wunderground v.1.15,2013-05-22 15:05:00,
2013-05-22 11:10:00,80.8,71.7,30.04,WNW,284,3.0,4.0,74,0.00,,,0.00,905,Wunderground v.1.15,2013-05-22 15:10:00,
2013-05-22 11:15:00,80.5,71.8,30.04,WNW,294,1.0,9.0,75,0.00,,,0.00,900,Wunderground v.1.15,2013-05-22 15:15:00,
2013-05-22 11:20:00,81.0,71.9,30.04,West,275,3.0,5.0,74,0.00,,,0.00,939,Wunderground v.1.15,2013-05-22 15:20:00,
2013-05-22 11:25:00,80.5,71.0,30.04,WNW,284,1.0,9.0,73,0.00,,,0.00,301,Wunderground v.1.15,2013-05-22 15:25:00,
2013-05-22 11:30:00,80.3,71.3,30.04,West,281,5.0,5.0,74,0.00,,,0.00,918,Wunderground v.1.15,2013-05-22 15:30:00,
2013-05-22 11:35:00,80.3,71.3,30.04,WNW,288,3.0,8.0,74,0.00,,,0.00,907,Wunderground v.1.15,2013-05-22 15:35:00,
2013-05-22 11:40:00,80.5,71.4,30.04,West,265,2.0,4.0,74,0.00,,,0.00,911,Wunderground v.1.15,2013-05-22 15:40:00,
2013-05-22 11:45:00,80.5,71.4,30.04,WNW,288,6.0,10.0,74,0.00,,,0.00,970,Wunderground v.1.15,2013-05-22 15:45:00,
2013-05-22 11:50:00,80.6,71.1,30.04,NW,306,6.0,6.0,73,0.00,,,0.00,918,Wunderground v.1.15,2013-05-22 15:50:00,
2013-05-22 11:55:00,80.7,72.0,30.04,West,275,5.0,8.0,75,0.00,,,0.00,979,Wunderground v.1.15,2013-05-22 15:55:00,
2013-05-22 12:02:00,80.5,71.4,30.04,NNW,342,6.0,6.0,74,0.00,,,0.00,951,Wunderground v.1.15,2013-05-22 16:02:00,
2013-05-22 12:07:00,80.3,71.6,30.04,WSW,246,5.0,9.0,75,0.00,,,0.00,977,Wunderground v.1.15,2013-05-22 16:07:00,
2013-05-22 12:12:00,80.9,72.2,30.04,NW,307,2.0,5.0,75,0.00,,,0.00,990,Wunderground v.1.15,2013-05-22 16:12:00,
2013-05-22 12:17:00,80.9,72.6,30.04,WNW,287,1.0,10.0,76,0.00,,,0.00,1000,Wunderground v.1.15,2013-05-22 16:17:00,
2013-05-22 12:22:00,80.8,72.1,30.04,West,270,4.0,9.0,75,0.00,,,0.00,979,Wunderground v.1.15,2013-05-22 16:22:00,
2013-05-22 12:27:00,80.2,71.2,30.04,NW,308,7.0,9.0,74,0.00,,,0.00,972,Wunderground v.1.15,2013-05-22 16:27:00,
2013-05-22 12:32:00,80.2,71.6,30.03,West,275,3.0,8.0,75,0.00,,,0.00,990,Wunderground v.1.15,2013-05-22 16:32:00,
2013-05-22 12:37:00,80.4,72.1,30.04,WNW,297,7.0,8.0,76,0.00,,,0.00,984,Wunderground v.1.15,2013-05-22 16:37:00,
2013-05-22 12:42:00,80.7,72.0,30.03,NW,304,2.0,6.0,75,0.00,,,0.00,988,Wunderground v.1.15,2013-05-22 16:42:00,
2013-05-22 12:47:00,81.3,72.6,30.03,WNW,289,6.0,8.0,75,0.00,,,0.00,986,Wunderground v.1.15,2013-05-22 16:47:00,
2013-05-22 12:52:00,81.1,72.4,30.03,West,278,6.0,7.0,75,0.00,,,0.00,984,Wunderground v.1.15,2013-05-22 16:52:00,
2013-05-22 12:57:00,81.5,72.4,30.03,NW,314,3.0,9.0,74,0.00,,,0.00,995,Wunderground v.1.15,2013-05-22 16:57:00,
2013-05-22 13:02:00,81.8,72.3,30.03,WNW,289,6.0,11.0,73,0.00,,,0.00,990,Wunderground v.1.15,2013-05-22 17:02:00,
2013-05-22 13:07:00,81.8,72.3,30.03,WNW,290,2.0,11.0,73,0.00,,,0.00,988,Wunderground v.1.15,2013-05-22 17:07:00,
2013-05-22 13:12:00,81.9,72.4,30.03,WNW,294,5.0,5.0,73,0.00,,,0.00,988,Wunderground v.1.15,2013-05-22 17:12:00,
2013-05-22 13:17:00,81.7,71.8,30.03,North,360,3.0,9.0,72,0.00,,,0.00,986,Wunderground v.1.15,2013-05-22 17:17:00,
2013-05-22 13:22:00,81.4,72.3,30.03,West,275,3.0,9.0,74,0.00,,,0.00,986,Wunderground v.1.15,2013-05-22 17:22:00,
2013-05-22 13:27:00,81.8,71.9,30.03,NW,321,3.0,10.0,72,0.00,,,0.00,986,Wunderground v.1.15,2013-05-22 17:27:00,
2013-05-22 13:32:00,81.7,71.4,30.03,NNW,345,4.0,10.0,71,0.00,,,0.00,993,Wunderground v.1.15,2013-05-22 17:32:00,
2013-05-22 13:37:00,81.3,71.0,30.03,WNW,282,6.0,10.0,71,0.00,,,0.00,991,Wunderground v.1.15,2013-05-22 17:37:00,
2013-05-22 13:42:00,81.1,72.0,30.03,West,279,3.0,6.0,74,0.00,,,0.00,986,Wunderground v.1.15,2013-05-22 17:42:00,
2013-05-22 13:47:00,80.7,71.6,30.02,WSW,254,5.0,10.0,74,0.00,,,0.00,983,Wunderground v.1.15,2013-05-22 17:47:00,
2013-05-22 13:52:00,80.8,71.7,30.02,NW,312,6.0,8.0,74,0.00,,,0.00,983,Wunderground v.1.15,2013-05-22 17:52:00,
2013-05-22 13:58:00,80.6,71.1,30.02,WNW,295,1.0,11.0,73,0.00,,,0.00,979,Wunderground v.1.15,2013-05-22 17:58:00,
2013-05-22 14:03:00,80.6,71.1,30.02,West,281,2.0,8.0,73,0.00,,,0.00,979,Wunderground v.1.15,2013-05-22 18:03:00,
2013-05-22 14:08:00,80.9,71.4,30.02,WNW,288,5.0,9.0,73,0.00,,,0.00,976,Wunderground v.1.15,2013-05-22 18:08:00,
2013-05-22 14:13:00,81.1,71.2,30.02,NNW,343,5.0,7.0,72,0.00,,,0.00,970,Wunderground v.1.15,2013-05-22 18:13:00,
2013-05-22 14:18:00,81.2,71.7,30.01,North,355,2.0,9.0,73,0.00,,,0.00,965,Wunderground v.1.15,2013-05-22 18:18:00,
2013-05-22 14:23:00,81.2,71.7,30.02,WNW,282,2.0,7.0,73,0.00,,,0.00,956,Wunderground v.1.15,2013-05-22 18:23:00,
2013-05-22 14:28:00,81.2,71.3,30.01,West,277,5.0,9.0,72,0.00,,,0.00,953,Wunderground v.1.15,2013-05-22 18:28:00,
2013-05-22 14:33:00,81.2,71.7,30.01,WNW,284,5.0,7.0,73,0.00,,,0.00,949,Wunderground v.1.15,2013-05-22 18:33:00,
2013-05-22 14:38:00,81.0,70.7,30.01,NNW,342,4.0,8.0,71,0.00,,,0.00,942,Wunderground v.1.15,2013-05-22 18:38:00,
2013-05-22 14:43:00,80.5,71.0,30.01,NNW,337,3.0,11.0,73,0.00,,,0.00,937,Wunderground v.1.15,2013-05-22 18:43:00,
2013-05-22 14:48:00,80.7,69.6,30.01,West,269,6.0,11.0,69,0.00,,,0.00,930,Wunderground v.1.15,2013-05-22 18:48:00,
2013-05-22 14:53:00,80.5,69.8,30.00,West,278,7.0,10.0,70,0.00,,,0.00,923,Wunderground v.1.15,2013-05-22 18:53:00,
2013-05-22 14:58:00,80.3,70.9,30.00,West,265,1.0,11.0,73,0.00,,,0.00,916,Wunderground v.1.15,2013-05-22 18:58:00,
2013-05-22 15:03:00,80.8,70.5,30.00,West,281,5.0,8.0,71,0.00,,,0.00,907,Wunderground v.1.15,2013-05-22 19:03:00,
2013-05-22 15:08:00,81.0,70.7,30.00,WNW,282,3.0,9.0,71,0.00,,,0.00,896,Wunderground v.1.15,2013-05-22 19:08:00,
2013-05-22 15:13:00,81.4,71.1,30.00,WNW,288,3.0,6.0,71,0.00,,,0.00,889,Wunderground v.1.15,2013-05-22 19:13:00,
2013-05-22 15:18:00,81.2,70.9,30.00,WNW,286,2.0,9.0,71,0.00,,,0.00,881,Wunderground v.1.15,2013-05-22 19:18:00,
2013-05-22 15:23:00,81.3,71.4,30.00,WNW,300,0.0,6.0,72,0.00,,,0.00,868,Wunderground v.1.15,2013-05-22 19:23:00,
2013-05-22 15:28:00,81.2,71.3,29.99,West,275,5.0,10.0,72,0.00,,,0.00,860,Wunderground v.1.15,2013-05-22 19:28:00,
2013-05-22 15:33:00,80.4,70.9,29.99,WNW,284,8.0,11.0,73,0.00,,,0.00,847,Wunderground v.1.15,2013-05-22 19:33:00,
2013-05-22 15:38:00,80.1,71.5,29.99,WNW,298,5.0,11.0,75,0.00,,,0.00,837,Wunderground v.1.15,2013-05-22 19:38:00,
2013-05-22 15:43:00,80.3,71.3,29.99,West,264,4.0,10.0,74,0.00,,,0.00,826,Wunderground v.1.15,2013-05-22 19:43:00,
2013-05-22 15:48:00,80.2,71.6,29.99,NW,319,4.0,10.0,75,0.00,,,0.00,812,Wunderground v.1.15,2013-05-22 19:48:00,
2013-05-22 15:53:00,80.5,71.8,29.99,West,271,10.0,10.0,75,0.00,,,0.00,805,Wunderground v.1.15,2013-05-22 19:53:00,
2013-05-22 15:58:00,80.2,71.6,29.99,WNW,284,10.0,10.0,75,0.00,,,0.00,791,Wunderground v.1.15,2013-05-22 19:58:00,
2013-05-22 16:03:00,80.2,71.2,29.99,West,279,3.0,11.0,74,0.00,,,0.00,779,Wunderground v.1.15,2013-05-22 20:03:00,
2013-05-22 16:09:00,80.2,71.6,29.99,NE,42,5.0,11.0,75,0.00,,,0.00,768,Wunderground v.1.15,2013-05-22 20:09:00,
2013-05-22 16:14:00,80.2,71.2,29.99,WNW,288,6.0,9.0,74,0.00,,,0.00,754,Wunderground v.1.15,2013-05-22 20:14:00,
2013-05-22 16:19:00,80.1,71.5,29.99,NNW,327,6.0,9.0,75,0.00,,,0.00,742,Wunderground v.1.15,2013-05-22 20:19:00,
2013-05-22 16:24:00,80.4,71.7,29.99,West,281,5.0,9.0,75,0.00,,,0.00,740,Wunderground v.1.15,2013-05-22 20:24:00,
2013-05-22 16:29:00,80.3,70.9,29.98,NW,321,7.0,10.0,73,0.00,,,0.00,722,Wunderground v.1.15,2013-05-22 20:29:00,
2013-05-22 16:34:00,80.1,71.5,29.98,WNW,302,4.0,8.0,75,0.00,,,0.00,712,Wunderground v.1.15,2013-05-22 20:34:00,
2013-05-22 16:39:00,80.4,71.7,29.98,NW,313,0.0,8.0,75,0.00,,,0.00,687,Wunderground v.1.15,2013-05-22 20:39:00,
2013-05-22 16:44:00,80.6,71.5,29.98,NW,319,4.0,8.0,74,0.00,,,0.00,670,Wunderground v.1.15,2013-05-22 20:44:00,
2013-05-22 16:49:00,80.2,71.6,29.98,NW,308,2.0,10.0,75,0.00,,,0.00,654,Wunderground v.1.15,2013-05-22 20:49:00,
2013-05-22 16:54:00,79.8,71.6,29.98,NW,316,6.0,10.0,76,0.00,,,0.00,638,Wunderground v.1.15,2013-05-22 20:54:00,
2013-05-22 16:59:00,79.7,71.5,29.98,WNW,302,4.0,10.0,76,0.00,,,0.00,619,Wunderground v.1.15,2013-05-22 20:59:00,
2013-05-22 17:04:00,79.4,71.6,29.98,WNW,295,5.0,8.0,77,0.00,,,0.00,601,Wunderground v.1.15,2013-05-22 21:04:00,
2013-05-22 17:09:00,79.6,71.8,29.97,West,275,5.0,9.0,77,0.00,,,0.00,585,Wunderground v.1.15,2013-05-22 21:09:00,
2013-05-22 17:14:00,79.4,71.9,29.97,West,273,4.0,6.0,78,0.00,,,0.00,575,Wunderground v.1.15,2013-05-22 21:14:00,
2013-05-22 17:19:00,79.4,71.9,29.97,West,280,4.0,8.0,78,0.00,,,0.00,564,Wunderground v.1.15,2013-05-22 21:19:00,
2013-05-22 17:24:00,79.3,71.8,29.97,WNW,302,5.0,10.0,78,0.00,,,0.00,74,Wunderground v.1.15,2013-05-22 21:24:00,
2013-05-22 17:29:00,79.1,71.6,29.96,NW,315,3.0,10.0,78,0.00,,,0.00,65,Wunderground v.1.15,2013-05-22 21:29:00,
2013-05-22 17:34:00,79.1,71.6,29.96,West,273,7.0,7.0,78,0.00,,,0.00,53,Wunderground v.1.15,2013-05-22 21:34:00,
2013-05-22 17:39:00,79.0,71.9,29.96,WNW,296,5.0,8.0,79,0.00,,,0.00,56,Wunderground v.1.15,2013-05-22 21:39:00,
2013-05-22 17:44:00,79.0,71.9,29.96,WNW,285,10.0,10.0,79,0.00,,,0.00,54,Wunderground v.1.15,2013-05-22 21:44:00,
2013-05-22 17:49:00,78.7,71.6,29.96,NNW,337,7.0,12.0,79,0.00,,,0.00,58,Wunderground v.1.15,2013-05-22 21:49:00,
2013-05-22 17:54:00,78.3,71.6,29.97,WNW,303,2.0,8.0,80,0.00,,,0.00,72,Wunderground v.1.15,2013-05-22 21:54:00,
2013-05-22 17:59:00,78.3,72.0,29.97,WNW,288,0.0,8.0,81,0.00,,,0.00,114,Wunderground v.1.15,2013-05-22 21:59:00,
2013-05-22 18:04:00,78.4,71.7,29.97,WNW,283,2.0,6.0,80,0.00,,,0.00,53,Wunderground v.1.15,2013-05-22 22:04:00,
2013-05-22 18:09:00,78.2,71.5,29.97,WNW,294,4.0,8.0,80,0.00,,,0.00,60,Wunderground v.1.15,2013-05-22 22:09:00,
2013-05-22 18:14:00,78.2,71.5,29.97,WNW,288,4.0,6.0,80,0.00,,,0.00,47,Wunderground v.1.15,2013-05-22 22:14:00,
2013-05-22 18:19:00,78.0,71.3,29.96,West,267,6.0,7.0,80,0.00,,,0.00,265,Wunderground v.1.15,2013-05-22 22:19:00,
2013-05-22 18:24:00,78.0,71.3,29.96,WNW,294,9.0,9.0,80,0.00,,,0.00,72,Wunderground v.1.15,2013-05-22 22:24:00,
2013-05-22 18:29:00,77.7,71.4,29.96,NW,317,3.0,9.0,81,0.00,,,0.00,44,Wunderground v.1.15,2013-05-22 22:29:00,
2013-05-22 18:34:00,77.7,71.4,29.96,NW,310,4.0,9.0,81,0.00,,,0.00,69,Wunderground v.1.15,2013-05-22 22:34:00,
2013-05-22 18:40:00,77.6,71.7,29.96,WNW,291,8.0,8.0,82,0.00,,,0.00,60,Wunderground v.1.15,2013-05-22 22:40:00,
2013-05-22 18:45:00,77.3,71.4,29.96,WNW,290,8.0,11.0,82,0.00,,,0.00,42,Wunderground v.1.15,2013-05-22 22:45:00,
2013-05-22 18:50:00,77.2,71.3,29.96,WNW,284,7.0,7.0,82,0.00,,,0.00,39,Wunderground v.1.15,2013-05-22 22:50:00,
2013-05-22 18:55:00,77.2,71.3,29.96,NNW,327,7.0,8.0,82,0.00,,,0.00,47,Wunderground v.1.15,2013-05-22 22:55:00,
2013-05-22 19:02:00,77.0,71.1,29.96,WNW,284,3.0,8.0,82,0.00,,,0.00,39,Wunderground v.1.15,2013-05-22 23:02:00,
2013-05-22 19:07:00,77.0,70.7,29.95,WNW,297,1.0,8.0,81,0.00,,,0.00,42,Wunderground v.1.15,2013-05-22 23:07:00,
2013-05-22 19:12:00,77.0,70.7,29.95,WNW,287,2.0,6.0,81,0.00,,,0.00,32,Wunderground v.1.15,2013-05-22 23:12:00,
2013-05-22 19:17:00,76.9,71.0,29.95,WNW,284,6.0,6.0,82,0.00,,,0.00,35,Wunderground v.1.15,2013-05-22 23:17:00,
2013-05-22 19:22:00,76.7,71.1,29.96,WNW,292,4.0,7.0,83,0.00,,,0.00,28,Wunderground v.1.15,2013-05-22 23:22:00,
2013-05-22 19:27:00,76.6,71.4,29.96,NW,311,2.0,7.0,84,0.00,,,0.00,25,Wunderground v.1.15,2013-05-22 23:27:00,
2013-05-22 19:32:00,76.5,71.7,29.95,NW,307,4.0,5.0,85,0.00,,,0.00,28,Wunderground v.1.15,2013-05-22 23:32:00,
2013-05-22 19:37:00,76.3,71.5,29.95,WSW,252,0.0,8.0,85,0.00,,,0.00,23,Wunderground v.1.15,2013-05-22 23:37:00,
2013-05-22 19:42:00,76.2,71.7,29.95,NW,311,0.0,5.0,86,0.00,,,0.00,18,Wunderground v.1.15,2013-05-22 23:42:00,
2013-05-22 19:47:00,76.0,71.5,29.96,WNW,300,5.0,10.0,86,0.00,,,0.00,16,Wunderground v.1.15,2013-05-22 23:47:00,
2013-05-22 19:52:00,75.9,71.4,29.95,WNW,293,3.0,6.0,86,0.00,,,0.00,14,Wunderground v.1.15,2013-05-22 23:52:00,
2013-05-22 19:57:00,75.8,71.3,29.96,WNW,286,2.0,8.0,86,0.00,,,0.00,12,Wunderground v.1.15,2013-05-22 23:57:00,
2013-05-22 20:02:00,75.8,71.7,29.96,West,280,4.0,5.0,87,0.00,,,0.00,9,Wunderground v.1.15,2013-05-23 00:02:00,
2013-05-22 20:07:00,75.7,71.6,29.96,NW,306,3.0,7.0,87,0.00,,,0.00,7,Wunderground v.1.15,2013-05-23 00:07:00,
2013-05-22 20:12:00,75.7,71.6,29.96,WNW,302,2.0,4.0,87,0.00,,,0.00,5,Wunderground v.1.15,2013-05-23 00:12:00,
2013-05-22 20:17:00,75.7,71.9,29.97,NW,319,7.0,10.0,88,0.00,,,0.00,0,Wunderground v.1.15,2013-05-23 00:17:00,
2013-05-22 20:22:00,75.6,71.8,29.97,West,278,4.0,4.0,88,0.00,,,0.00,0,Wunderground v.1.15,2013-05-23 00:22:00,
2013-05-22 20:27:00,75.6,71.8,29.96,NW,319,2.0,9.0,88,0.00,,,0.00,0,Wunderground v.1.15,2013-05-23 00:27:00,
2013-05-22 20:32:00,75.5,71.7,29.97,WNW,302,5.0,8.0,88,0.00,,,0.00,0,Wunderground v.1.15,2013-05-23 00:32:00,
2013-05-22 20:38:00,75.5,72.0,29.97,WNW,286,2.0,8.0,89,0.00,,,0.00,0,Wunderground v.1.15,2013-05-23 00:38:00,
2013-05-22 20:43:00,75.5,72.0,29.97,West,260,2.0,6.0,89,0.00,,,0.00,0,Wunderground v.1.15,2013-05-23 00:43:00,
2013-05-22 20:48:00,75.5,72.0,29.97,NNW,339,4.0,6.0,89,0.00,,,0.00,0,Wunderground v.1.15,2013-05-23 00:48:00,
2013-05-22 20:53:00,75.4,71.9,29.97,WNW,298,5.0,5.0,89,0.00,,,0.00,0,Wunderground v.1.15,2013-05-23 00:53:00,
2013-05-22 20:58:00,75.4,71.6,29.97,North,5,1.0,6.0,88,0.00,,,0.00,0,Wunderground v.1.15,2013-05-23 00:58:00,
2013-05-22 21:03:00,75.3,71.5,29.97,WSW,243,4.0,5.0,88,0.00,,,0.00,0,Wunderground v.1.15,2013-05-23 01:03:00,
2013-05-22 21:08:00,75.3,71.8,29.97,WNW,286,1.0,5.0,89,0.00,,,0.00,0,Wunderground v.1.15,2013-05-23 01:08:00,
2013-05-22 21:13:00,75.3,71.8,29.97,West,275,0.0,7.0,89,0.00,,,0.00,0,Wunderground v.1.15,2013-05-23 01:13:00,
2013-05-22 21:18:00,75.2,71.7,29.97,West,276,3.0,7.0,89,0.00,,,0.00,0,Wunderground v.1.15,2013-05-23 01:18:00,
2013-05-22 21:23:00,75.2,71.7,29.97,WNW,282,0.0,3.0,89,0.00,,,0.00,0,Wunderground v.1.15,2013-05-23 01:23:00,
2013-05-22 21:28:00,75.2,71.7,29.97,West,276,5.0,6.0,89,0.00,,,0.00,0,Wunderground v.1.15,2013-05-23 01:28:00,
2013-05-22 21:33:00,75.2,71.7,29.97,NNW,337,3.0,5.0,89,0.00,,,0.00,0,Wunderground v.1.15,2013-05-23 01:33:00,
2013-05-22 21:38:00,75.2,71.7,29.97,NW,320,2.0,5.0,89,0.00,,,0.00,0,Wunderground v.1.15,2013-05-23 01:38:00,
2013-05-22 21:43:00,75.2,72.1,29.97,NNW,333,2.0,4.0,90,0.00,,,0.00,0,Wunderground v.1.15,2013-05-23 01:43:00,
2013-05-22 21:48:00,75.1,72.0,29.98,NNW,332,2.0,5.0,90,0.00,,,0.00,0,Wunderground v.1.15,2013-05-23 01:48:00,
2013-05-22 21:53:00,75.1,72.0,29.98,NW,310,4.0,4.0,90,0.00,,,0.00,0,Wunderground v.1.15,2013-05-23 01:53:00,
2013-05-22 21:58:00,75.0,71.5,29.98,WNW,287,1.0,8.0,89,0.00,,,0.00,0,Wunderground v.1.15,2013-05-23 01:58:00,
2013-05-22 22:03:00,75.0,71.5,29.98,NW,309,2.0,5.0,89,0.00,,,0.00,0,Wunderground v.1.15,2013-05-23 02:03:00,
2013-05-22 22:08:00,75.0,71.5,29.98,NW,326,3.0,5.0,89,0.00,,,0.00,0,Wunderground v.1.15,2013-05-23 02:08:00,
2013-05-22 22:13:00,74.9,71.4,29.98,WNW,284,1.0,6.0,89,0.00,,,0.00,0,Wunderground v.1.15,2013-05-23 02:13:00,
2013-05-22 22:18:00,74.9,71.4,29.99,WNW,303,3.0,6.0,89,0.00,,,0.00,0,Wunderground v.1.15,2013-05-23 02:18:00,
2013-05-22 22:23:00,74.9,71.4,29.99,NNW,332,1.0,4.0,89,0.00,,,0.00,0,Wunderground v.1.15,2013-05-23 02:23:00,
2013-05-22 22:28:00,74.9,71.4,29.99,WNW,292,2.0,5.0,89,0.00,,,0.00,0,Wunderground v.1.15,2013-05-23 02:28:00,
2013-05-22 22:33:00,74.8,71.3,29.99,NNE,20,4.0,7.0,89,0.00,,,0.00,0,Wunderground v.1.15,2013-05-23 02:33:00,
2013-05-22 22:38:00,74.8,71.3,29.98,WNW,291,1.0,7.0,89,0.00,,,0.00,0,Wunderground v.1.15,2013-05-23 02:38:00,
2013-05-22 22:43:00,74.8,71.3,29.98,West,274,0.0,3.0,89,0.00,,,0.00,0,Wunderground v.1.15,2013-05-23 02:43:00,
2013-05-22 22:49:00,74.7,71.2,29.99,NNW,339,6.0,6.0,89,0.00,,,0.00,0,Wunderground v.1.15,2013-05-23 02:49:00,
2013-05-22 22:54:00,74.7,71.2,29.99,West,281,1.0,4.0,89,0.00,,,0.00,0,Wunderground v.1.15,2013-05-23 02:54:00,
2013-05-22 22:59:00,74.6,71.5,29.99,WNW,298,1.0,4.0,90,0.00,,,0.00,0,Wunderground v.1.15,2013-05-23 02:59:00,
2013-05-22 23:04:00,74.6,71.5,29.98,NNW,327,0.0,3.0,90,0.00,,,0.00,0,Wunderground v.1.15,2013-05-23 03:04:00,
2013-05-22 23:09:00,74.4,71.3,29.98,WNW,298,1.0,4.0,90,0.00,,,0.00,0,Wunderground v.1.15,2013-05-23 03:09:00,
2013-05-22 23:14:00,74.3,71.2,29.98,NW,326,1.0,4.0,90,0.00,,,0.00,0,Wunderground v.1.15,2013-05-23 03:14:00,
2013-05-22 23:19:00,74.2,71.1,29.98,NW,317,1.0,4.0,90,0.00,,,0.00,0,Wunderground v.1.15,2013-05-23 03:19:00,
2013-05-22 23:24:00,74.2,71.4,29.98,West,279,1.0,4.0,91,0.00,,,0.00,0,Wunderground v.1.15,2013-05-23 03:24:00,
2013-05-22 23:29:00,74.2,71.4,29.98,West,268,1.0,4.0,91,0.00,,,0.00,0,Wunderground v.1.15,2013-05-23 03:29:00,
2013-05-22 23:34:00,74.0,71.2,29.98,WNW,294,1.0,3.0,91,0.00,,,0.00,0,Wunderground v.1.15,2013-05-23 03:34:00,
2013-05-22 23:39:00,73.9,71.1,29.99,NNW,329,0.0,3.0,91,0.00,,,0.00,0,Wunderground v.1.15,2013-05-23 03:39:00,
2013-05-22 23:44:00,73.9,71.1,29.98,NNW,329,0.0,2.0,91,0.00,,,0.00,0,Wunderground v.1.15,2013-05-23 03:44:00,
2013-05-22 23:49:00,73.8,71.3,29.98,NNW,329,0.0,2.0,92,0.00,,,0.00,0,Wunderground v.1.15,2013-05-23 03:49:00,
2013-05-22 23:54:00,73.7,71.2,29.99,NNW,329,0.0,1.0,92,0.00,,,0.00,0,Wunderground v.1.15,2013-05-23 03:54:00,
2013-05-22 23:59:00,73.6,71.1,29.98,NNW,329,0.0,1.0,92,0.00,,,0.00,0,Wunderground v.1.15,2013-05-23 03:59:00,